Weather in Lopburi

Thailand     14°47′39″N   100°38′14″E
temp.,
°C
wind,
m/s
gust,
m/s
humid.,
%
clouds,
%
prec.,
mm/h
press.,
hPa
HPBL,
m
24 may, tue
tue2401:00+26ssw268094 0.0 1006237
04:00+26s248063 0.2 1005176
07:00+27ssw377999 0.2 1007302
10:00+31sw576054 0.2 10081390
13:00+31sw676383 3.1 10071186
16:00+31ssw486198 2.9 10051157
19:00+27s488085 4.6 1007287
22:00+26ssw3883100 0.3 1009336
25 may, wed
wed2501:00+25s248755 0.3 1009152
04:00+24s2687100 0.2 1008224
07:00+24sse2388100 0.3 1009176
10:00+29ssw3466100 0.0 1010868
13:00+32ssw5757100 0.0 10081510
16:00+32sw5656100 0.3 10051323
19:00+28sw4973100 0.3 1006332
22:00+27ssw3976100 0.0 1008313
26 may, thu
thu2601:00+26s2581100 0.0 1007213
04:00+25s2281100 0.0 100660
07:00+26s2378100 0.0 1007166
10:00+30ssw346196 0.0 1007855
13:00+30sw356298 0.0 10061024
16:00+31wsw675741 0.0 1003968
19:00+28ssw22695 0.0 100327
22:00+27s247520 0.0 100681
27 may, fri
fri2701:00+26ssw387852 0.0 1004273
04:00+26ssw37795 0.0 1003252
07:00+26ssw387916 0.0 1005396
10:00+31wsw675784 0.0 10061217
13:00+33w895057 0.0 10041566
16:00+28wsw596695 0.0 1002790
19:00+27ssw3970100 0.0 1003551
22:00+27ssw3106797 0.0 1005545
28 may, sat
sat2801:00+25ssw397174 0.0 1004340
04:00+24s267881 0.0 1003203
07:00+25s3681100 0.0 1005291
10:00+29wsw3664100 0.0 1005813
13:00+31wsw675560 0.0 10041358
16:00+32wsw78505 0.0 10011476
19:00+26sw6106921 0.0 1003578
22:00+25ssw387646 0.0 1005376